This demonstration page uses our WeatherBlox Daily Observations layout. Learn more.

40.92945, -100.16068

Hourly Observations for August 12, 2020

Temp ( °F °C ) Dew Point ( °F °C ) Humidity (%) Winds ( mph kmh ) Pressure ( in mb ) Visibility ( mi km ) Precip ( " mm )
12:15 am 00:15 Clear 76 24.5 58 14.3 53 53 NNW 8 13 29.85 1011 10 16.0934 0 0
12:35 am 00:35 Clear 70 21.1 60 15.7 71 71 N 7 11 29.89 1012 10 16.0934 0 0
12:55 am 00:55 Clear 67 19.6 60 15.7 78 78 N 8 13 29.9 1012 10 16.0934 0 0
1:15 am 01:15 Clear 69 20.6 61 16.2 76 76 NE 8 13 29.88 1012 10 16.0934 0 0
1:35 am 01:35 Clear 69 20.6 63 17.1 80 80 NE 6 9 29.89 1012 10 16.0934 0 0
1:55 am 01:55 Clear 69 20.7 63 17.4 81 81 E 7 11 29.88 1012 10 16.0934 0 0
2:15 am 02:15 Clear 69 20.6 64 17.6 83 83 E 7 11 29.86 1011 10 16.0934 0 0
2:35 am 02:35 Clear 69 20.6 64 17.7 84 84 ESE 8 13 29.84 1010 10 16.0934 0 0
2:55 am 02:55 Clear 69 20.4 63 17.2 82 82 ESE 5 7 29.83 1010 10 16.0934 0 0
3:15 am 03:15 Clear 66 19.1 62 16.6 86 86 ESE 6 9 29.83 1010 10 16.0934 0 0
3:35 am 03:35 Clear 67 19.3 61 16.2 82 82 SSE 3 6 29.84 1010 10 16.0934 0 0
3:55 am 03:55 Clear 64 18 61 16 88 88 SSE 9 15 29.87 1011 10 16.0934 0 0
4:15 am 04:15 Clear 64 17.6 61 16 90 90 S 3 6 29.88 1012 10 16.0934 0 0
4:35 am 04:35 Clear 65 18.1 62 16.4 90 90 S 3 6 29.88 1012 10 16.0934 0 0
4:55 am 04:55 Clear 65 18.1 61 16.2 89 89 SSE 5 7 29.88 1012 10 16.0934 0 0
5:15 am 05:15 Clear 64 18 61 16 88 88 S 5 7 29.89 1012 10 16.0934 0 0
5:35 am 05:35 Clear 65 18.1 61 16 88 88 SSE 3 6 29.88 1012 10 16.0934 0 0
5:55 am 05:55 Clear 65 18.3 61 16 87 87 SSE 6 9 29.88 1012 10 16.0934 0 0
6:15 am 06:15 Clear 66 18.7 61 16 84 84 S 8 13 29.86 1011 10 16.0934 0 0
6:35 am 06:35 Clear 66 18.8 61 16 84 84 SSE 6 9 29.85 1011 10 16.0934 0 0
6:55 am 06:55 Sunny 68 19.9 60 15.6 76 76 SE 9 15 29.84 1011 10 16.0934 0 0
7:15 am 07:15 Sunny 68 20.1 60 15.6 75 75 SE 8 13 29.83 1010 10 16.0934 0 0
7:35 am 07:35 Sunny 68 20.1 60 15.3 74 74 SE 9 15 29.84 1011 10 16.0934 0 0
7:55 am 07:55 Sunny 69 20.3 59 14.9 71 71 S 13 20 29.84 1010 10 16.0934 0 0
8:15 am 08:15 Sunny 69 20.3 59 15 72 72 S 14 22 29.84 1010 10 16.0934 0 0
8:35 am 08:35 Sunny 70 21.1 59 14.8 67 67 S 9 15 29.84 1011 10 16.0934 0 0
8:55 am 08:55 Sunny 73 23 58 14.6 59 59 S 12 19 29.82 1010 10 16.0934 0 0
9:15 am 09:15 Sunny 76 24.5 56 13.6 51 51 S 24 39 29.79 1009 7 11.26538 0 0
9:35 am 09:35 Sunny 77 24.8 57 14 51 51 SSW 17 28 29.81 1010 10 16.0934 0 0
9:55 am 09:55 Sunny 78 25.6 59 14.8 51 51 SSW 16 26 29.83 1010 10 16.0934 0 0
10:15 am 10:15 Sunny 80 26.5 58 14.7 48 48 SW 20 31 29.82 1010 7 11.26538 0 0
10:35 am 10:35 Sunny 80 26.8 58 14.3 46 46 SW 22 35 29.82 1010 7 11.26538 0 0
10:55 am 10:55 Sunny 82 27.6 59 14.9 46 46 SW 15 24 29.82 1010 10 16.0934 0 0
11:15 am 11:15 Sunny 83 28.3 56 13.6 40 40 SSW 15 24 29.82 1010 10 16.0934 0 0
11:35 am 11:35 Sunny 84 28.9 59 14.8 42 42 SW 10 17 29.82 1010 10 16.0934 0 0
11:55 am 11:55 Sunny 85 29.4 59 14.9 41 41 SW 8 13 29.82 1010 10 16.0934 0 0
12:15 pm 12:15 Sunny 85 29.5 58 14.7 41 41 SW 12 19 29.81 1010 10 16.0934 0 0
12:35 pm 12:35 Sunny 85 29.7 58 14.4 39 39 SSW 13 20 29.81 1010 10 16.0934 0 0
12:55 pm 12:55 Sunny 87 30.3 58 14.7 39 39 SSW 12 19 29.81 1009 10 16.0934 0 0
1:15 pm 13:15 Partly Cloudy 88 30.9 58 14.4 37 37 S 13 20 29.8 1009 7 11.26538 0 0
1:35 pm 13:35 Sunny 87 30.6 59 15.1 39 39 SW 10 17 29.8 1009 10 16.0934 0 0
1:55 pm 13:55 Sunny 88 30.9 60 15.3 39 39 SSW 9 15 29.79 1009 10 16.0934 0 0
2:15 pm 14:15 Partly Cloudy 88 31.2 60 15.5 39 39 SSW 7 11 29.79 1009 7 11.26538 0 0
2:35 pm 14:35 Partly Cloudy 89 31.8 60 15.7 38 38 SSE 6 9 29.78 1008 10 16.0934 0 0
2:55 pm 14:55 Sunny 89 31.8 61 16.1 39 39 S 5 7 29.78 1008 10 16.0934 0 0
3:15 pm 15:15 Sunny 90 32 61 16.1 38 38 S 6 9 29.76 1008 10 16.0934 0 0
3:35 pm 15:35 Sunny 91 33 61 16.1 36 36 S 10 17 29.76 1008 10 16.0934 0 0
3:55 pm 15:55 Sunny 92 33.1 61 16.3 36 36 SE 8 13 29.75 1008 10 16.0934 0 0
4:15 pm 16:15 Sunny 91 32.7 62 16.5 38 38 SSE 8 13 29.75 1007 10 16.0934 0 0
4:35 pm 16:35 Sunny 92 33.1 62 16.7 37 37 SE 14 22 29.74 1007 10 16.0934 0 0
4:55 pm 16:55 Sunny 91 32.5 63 17.2 40 40 SE 13 20 29.74 1007 10 16.0934 0 0
5:15 pm 17:15 Sunny 90 32.3 63 17.3 41 41 ESE 12 19 29.74 1007 7 11.26538 0 0
5:35 pm 17:35 Sunny 90 32.4 64 17.5 41 41 ESE 13 20 29.74 1007 10 16.0934 0 0
5:55 pm 17:55 Sunny 91 32.6 61 16.3 38 38 SE 14 22 29.74 1007 10 16.0934 0 0
6:15 pm 18:15 Sunny 90 32.4 61 16.3 38 38 SE 17 28 29.73 1007 10 16.0934 0 0
6:35 pm 18:35 Sunny 88 31 66 19.1 49 49 SE 15 24 29.74 1007 10 16.0934 0 0
6:55 pm 18:55 Sunny 87 30.5 67 19.3 51 51 SE 13 20 29.75 1007 10 16.0934 0 0
7:15 pm 19:15 Sunny 86 30.1 67 19.3 52 52 SE 15 24 29.75 1007 10 16.0934 0 0
7:35 pm 19:35 Sunny 85 29.5 67 19.4 55 55 SE 15 24 29.75 1008 10 16.0934 0 0
7:55 pm 19:55 Sunny 83 28.6 67 19.3 57 57 SE 13 20 29.76 1008 7 11.26538 0 0
8:15 pm 20:15 Sunny 82 27.8 67 19.5 61 61 SSE 14 22 29.78 1008 7 11.26538 0 0
8:35 pm 20:35 Sunny 81 27 66 18.9 61 61 SSE 15 24 29.79 1009 10 16.0934 0 0
8:55 pm 20:55 Clear 80 26.4 65 18.2 61 61 SE 10 17 29.8 1009 10 16.0934 0 0
9:15 pm 21:15 Clear 78 25.7 65 18.3 64 64 SE 9 15 29.82 1010 10 16.0934 0 0
9:35 pm 21:35 Clear 77 25 65 18.6 68 68 SE 10 17 29.84 1010 10 16.0934 0 0
9:55 pm 21:55 Clear 76 24.2 65 18.6 71 71 SSE 8 13 29.85 1011 10 16.0934 0 0
10:15 pm 22:15 Clear 75 24 66 18.9 73 73 SSE 9 15 29.86 1011 10 16.0934 0 0
10:35 pm 22:35 Clear 74 23.5 66 19 76 76 SE 9 15 29.86 1011 10 16.0934 0 0
10:55 pm 22:55 Clear 73 23 66 19.1 79 79 SSE 10 17 29.88 1012 10 16.0934 0 0
11:15 pm 23:15 Clear 73 22.8 67 19.5 82 82 SSE 6 9 29.89 1012 10 16.0934 0 0
11:35 pm 23:35 Clear 73 22.5 67 19.6 84 84 SSE 5 7 29.9 1013 10 16.0934 0 0
11:55 pm 23:55 Clear 72 22.2 68 19.8 86 86 SSE 6 9 29.89 1012 10 16.0934 0 0

Powered by AerisWeather